Regional Weather Roundup
Issued by NWS Cleveland, OH

Home | Current Version | Previous Version | Graphics & Text | Print | Product List | Glossary On
Versions: 1 2 3 4 5 6 7 8 9 10 11 12 13 14 15 16 17 18 19 20 21 22 23 24 25 26 27 28 29 30 31 32 33 34 35 36 37 38 39 40 41 42 43 44 45 46 47 48 49 50
000
ASUS41 KCLE 291200
RWRCLE
OHIO REGIONAL WEATHER ROUNDUP
NATIONAL WEATHER SERVICE WILMINGTON, OH
700 AM EST THU JAN 29 2015

NOTE: "FAIR" INDICATES FEW OR NO CLOUDS BELOW 12,000 FEET WITH NO
SIGNIFICANT WEATHER AND/OR OBSTRUCTIONS TO VISIBILITY.

OHZ001>008-015>018-024>027-034-035-043-044-291300-
   NORTHWEST OHIO

CITY           SKY/WX    TMP DP  RH WIND       PRES   REMARKS
DEFIANCE       CLOUDY    34  25  69 S7        29.80F WCI  28
FINDLAY        MIX PCPN  32  23  69 S20       29.82F WCI  20
TOLEDO EXPRESS CLOUDY    29  23  78 VRB5      29.81F WCI  24
TOLEDO EXEC    CLOUDY    32  22  66 S10       29.84F WCI  24
LIMA           CLOUDY    37  25  61 S18G30    29.81F
$$

OHZ009>014-019>023-028>033-038-089-291300-
   NORTHEAST OHIO

CITY           SKY/WX    TMP DP  RH WIND       PRES   REMARKS
CLE-HOPKINS    CLOUDY    32  15  49 S18       29.94F WCI  20
CLE-LAKEFRONT  CLOUDY    32  12  43 SE21G26   29.91F WCI  20
CUY CO. ARPT   CLOUDY    32  10  40 S12G21    29.94  WCI  23
LORAIN-ELYRIA  CLOUDY    30  19  63 S20G29    29.89F WCI  17
ASHTABULA      CLOUDY    27   6  41 SE10      30.00F WCI  17
AKRON-CANTON   CLOUDY    29  14  53 S15       29.97F WCI  18
WOOSTER        NOT AVBL
MANSFIELD      CLOUDY    31  18  58 S22       29.88F WCI  18
YOUNGSTOWN     CLOUDY    25   8  48 SE16      29.99F WCI  12
$$

OHZ042-051>053-060>062-070>072-077>081-291300-
  SOUTHWEST OHIO

CITY           SKY/WX    TMP DP  RH WIND       PRES   REMARKS
CINC-COVINGTON CLOUDY    38  29  70 S17       29.88F
CINC-LUNKEN    CLOUDY    34  29  82 S10       29.92F WCI  26
HAMILTON       CLOUDY    35  30  82 S5        29.91F
DAYTON         NOT AVBL
WRIGHT-PAT AFB NOT AVBL
DAYTON GENERAL CLOUDY    35  28  75 S15       29.87F WCI  25
WILMINGTON     RAIN      34  26  72 S15G24    29.90F WCI  24
$$

OHZ036-037-039>041-045>050-054>059-063>069-073>076-082>088-291300-
  CENTRAL AND SOUTHEAST OHIO

CITY           SKY/WX    TMP DP  RH WIND       PRES   REMARKS
COLUMBUS       CLOUDY    31  19  61 SE9       29.95F WCI  23
OSU AIRPORT    FRZ RAIN  31  21  66 S12       29.94F WCI  22
BOLTON FIELD   NOT AVBL
RICKENBACK AFB NOT AVBL
NEWARK         CLOUDY    30  19  63 S7        29.96F WCI  23
MARION         FRZ RAIN  33  21  61 S24G33    29.89F WCI  20
LANCASTER      CLOUDY    31  19  61 SE13      29.97F WCI  21
ZANESVILLE     CLOUDY    27  14  58 SE8       30.00F WCI  19
NEW PHILLY     CLOUDY    28  14  55 SE8       30.01F WCI  20
$$


USA.gov is the U.S. government's official web portal to all federal, state and local government web resources and services.